一网星座-0511星 (ONEWEB-0511 )

导读 | 豆包AI

ONEWEB-0511是一颗由英国(GB)发射的卫星,于2022年10月22日08:00升空,隶属于OneWeb星座系统,主要为全球提供低轨卫星互联网服务。它在近地轨道运行,支撑OneWeb全球宽带网络覆盖,满足偏远地区及各类用户高速互联网接入需求,助力全球互联基础设施建设。

基本信息
目录编号:
54129
目录名称:
ONEWEB-0511
国际标识:
2022-138S
轨道中心:
EARTH
卫星名称:
一网星座-0511星
卫星全名:
一网星座-0511星 (ONEWEB-0511 )
卫星状态:
在轨 (已飞行1239 天)
发射日期:
2022-10-22 UTC
国别 :
英国 (GB)
星等 :
--
轨道信息
数据来源 国际轨道数据 AOE轨道数据
星历时间 2026-03-14T01:04:15+0800
15小时前
查看轨道信息
2026-03-11T11:00:00+0800
3天前
查看轨道信息
半长轴 7564.04km 7563.927km
偏心率 0.0001435 0.0001417
轨道倾角 87.923° 87.922°
近地点辐角 86.562° 106.415°
升交点赤经 323.987° 324.500°
平近点角 273.568° 213.447°
近地点 1184.817km 1184.718km
远地点 1186.989km 1186.862km
周期 109.116分钟 109.114分钟
每日圈数 13.196905 13.1972
详细信息
平衡模式:
三轴稳定
覆盖范围:
全球
运营商:
一网卫星公司
运营商所在国:
英国
制造商(研发单位):
一网卫星公司
制造商所在国:
英国
使用方式:
暂无
卫星简介
OneWeb卫星网络由648颗重约125公斤的微型卫星组成,运行在1200公里的轨道上。 每颗卫星都能够提供至少每秒8千兆位的吞吐量,以使用其高吞吐量的Ku频段有效载荷为家庭和移动平台提供互联网接入。该卫星仍在工作。
2D轨道图
3D轨道图
轨道高度分析图
轨道倾角分析图
轨道综合分析图
查看轨道综合分析图